Regional Weather Roundup
Issued by NWS Green Bay, WI

Home | Current Version | Previous Version | Text Only | Print | Product List | Glossary On
Versions: 1 2 3 4 5 6 7 8 9 10 11 12 13 14 15 16 17 18 19 20 21 22 23 24 25 26 27 28 29 30 31 32 33 34 35 36 37 38 39 40 41 42 43 44 45 46 47 48 49 50
000
ASUS43 KGRB 190611
RWRGRB

NORTH-CENTRAL AND NORTHEAST WISCONSIN REGIONAL WEATHER ROUNDUP
NATIONAL WEATHER SERVICE GREEN BAY WI
100 AM CDT SAT AUG 19 2017

WIZ005-009-010>012-018-019-190700-
NORTH CENTRAL WISCONSIN

CITY           SKY/WX    TMP DP  RH WIND       PRES   REMARKS
IRONWOOD       CLOUDY    59  58  96 W5        29.88R
MANITOWISH WTR FOG       55  55 100 CALM      29.90R VSB 1
ARBOR VITAE    CLOUDY    59  58  96 CALM      29.90R
EAGLE RIVER    CLOUDY    51  51 100 CALM      29.89F
LAND O LAKES   PTCLDY    53  53 100 CALM      29.90F
RHINELANDER    CLOUDY    57  57 100 W3        29.91S
PHILLIPS       CLEAR     59  59 100 CALM      29.91R
ANTIGO         PTCLDY    54  54 100 CALM      29.91F
TOMAHAWK         N/A     56  56  97 CALM      29.91S
MERRILL        CLOUDY    57  57 100 CALM      29.91F
$$

WIZ013-073-190700-
NORTHEAST WISCONSIN

CITY           SKY/WX    TMP DP  RH WIND       PRES   REMARKS
IRON MOUNTAIN  PTCLDY    55  52  89 CALM      29.87R
MARINETTE      CLOUDY    60  57  89 W3        29.88R
OCONTO         CLOUDY    57  56  95 CALM      29.88R
$$

WIZ017-030-035>037-045-190700-
CENTRAL WISCONSIN

CITY           SKY/WX    TMP DP  RH WIND       PRES   REMARKS
MEDFORD        FOG       61  61  99 W8        29.93R VSB 1/4
WAUSAU         CLOUDY    62  61  96 W3        29.90S FOG
MOSINEE        CLOUDY    61  61 100 W5        29.92S FOG
MARSHFIELD     CLOUDY    62  59  90 W7        29.91F FOG
WISC RAPIDS    CLOUDY    64  63  96 W3        29.92F
STEVENS POINT  CLOUDY    62  62 100 CALM      29.91F
WAUPACA        CLOUDY    66  65  96 W3        29.91S
SHAWANO        CLOUDY    64  60  87 CALM      29.89S
CLINTONVILLE   CLOUDY    61  59  94 CALM      29.90R
WAUTOMA        CLOUDY    64  63  96 W6          N/A
$$

WIZ038-039-048-051-190700-
FOX VALLEY

CITY           SKY/WX    TMP DP  RH WIND       PRES   REMARKS
NWS GREEN BAY  CLOUDY    62  62 100 W5        29.89S
APPLETON       CLOUDY    63  61  94 W7        29.89S
OSHKOSH        CLOUDY    65  62  90 W3        29.90R
FOND DU LAC    CLOUDY    65  61  87 W6        29.91R
$$

WIZ022-050-052-190700-
EAST CENTRAL WISCONSIN

CITY           SKY/WX    TMP DP  RH WIND       PRES   REMARKS
EPHRAIM        MOCLDY    63  57  79 W3        29.86S
WASHINGTON ISL MOCLDY    64  56  75 NW6       29.85S
STURGEON BAY   CLOUDY    62  57  83 SW3       29.88S
MANITOWOC      LGT RAIN  63  60  90 W3        29.90R
SHEBOYGAN      CLOUDY    64  62  93 NW3       29.90R
$$

LMZ563-521-522-541>543-190700-
LAKESHORE

STATION/POSITION TIME  TEMP    WIND        PRES    VSBY  WAVE
                       AIR SEA DIR/SP/G                  HT/PER
                 (UTC) (F)     (DEG/KT/KT) (MB)    (MI)  (FT/S)
SHEBOYGAN LKSHOR 0600   67     310/  6/  8 1011.9R
KEWAUNEE LKSHORE 0548   63     300/  2/  3 1011.1R
NORTHPORT PIER   0540   67     300/ 11/ 16 1010.8S
N MID LAKE BUOY  0550   66 67  290/ 14/ 16 1010.9R         1/ 3
S GREEN BAY BUOY 0600   68 70  260/ 10/ 12 1011.6
SISTER BAY LKSHO 0603   67     320/ 12/ 13   N/A
MENOMINEE LKSHOR 0548   64     250/  6/  9 1011.3R
$$



USA.gov is the U.S. government's official web portal to all federal, state and local government web resources and services.